{"data":{"norad_id":60479,"epoch":"2026-05-25T03:40:34.852224Z","epoch_age_seconds":58952,"freshness":"FRESH","line1":"1 60479U 24149M   26145.15318116  .00006752  00000+0  21869-3 0  9998","line2":"2 60479  97.3749 225.7043 0001972  11.6559 348.4728 15.32344268 98568","mean_motion":15.32344268,"eccentricity":0.0001972,"inclination_deg":97.3749,"raan_deg":225.7043,"arg_perigee_deg":11.6559,"mean_anomaly_deg":348.4728,"bstar":0.00021869,"rev_number":9856,"period_min":93.973660493374,"perigee_km":467.46991882536,"apogee_km":470.17035872089,"semimajor_km":6846.9571387731,"source":"CELESTRAK","updated_at":"2026-05-25T13:38:02.111157Z"}}